Time,TemperatureF,DewpointF,PressureIn,WindDirection,WindDirectionDegrees,WindSpeedMPH,WindSpeedGustMPH,Humidity,HourlyPrecipIn,Conditions,Clouds,dailyrainin,SolarRadiationWatts/m^2,SoftwareType,DateUTC
2013-08-19 00:03:00,61.0,60.0,-100.00,South,191,0.0,0.0,96,0.00,,,0.00,0.000000,,2013-08-19 04:03:00,
2013-08-19 00:12:00,61.0,60.0,-100.00,South,191,0.0,0.0,96,0.00,,,0.00,0.000000,,2013-08-19 04:12:00,
2013-08-19 00:23:00,61.0,60.0,-100.00,South,191,0.0,0.0,96,0.00,,,0.00,0.000000,,2013-08-19 04:23:00,
2013-08-19 01:22:00,59.0,58.0,-100.00,SSW,213,0.0,1.0,97,0.00,,,0.00,0.000000,,2013-08-19 05:22:00,
2013-08-19 01:52:00,60.0,59.0,-100.00,SSW,194,1.0,4.0,98,0.00,,,0.00,0.000000,,2013-08-19 05:52:00,
2013-08-19 02:02:00,60.0,59.0,-100.00,SSW,194,1.0,4.0,98,0.00,,,0.00,0.000000,,2013-08-19 06:02:00,
2013-08-19 02:11:00,60.0,59.0,-100.00,SSW,194,1.0,4.0,98,0.00,,,0.00,0.000000,,2013-08-19 06:11:00,
2013-08-19 02:21:00,60.0,59.0,-100.00,SSW,194,1.0,4.0,98,0.00,,,0.00,0.000000,,2013-08-19 06:21:00,
2013-08-19 02:52:00,61.0,59.0,-100.00,South,189,2.0,4.0,94,0.00,,,0.00,0.000000,,2013-08-19 06:52:00,
2013-08-19 03:01:00,61.0,59.0,-100.00,South,189,2.0,4.0,94,0.00,,,0.00,0.000000,,2013-08-19 07:01:00,
2013-08-19 03:12:00,61.0,59.0,-100.00,South,189,2.0,4.0,94,0.00,,,0.00,0.000000,,2013-08-19 07:12:00,
2013-08-19 03:21:00,61.0,59.0,-100.00,South,189,2.0,4.0,94,0.00,,,0.00,0.000000,,2013-08-19 07:21:00,
2013-08-19 03:52:00,59.0,58.0,-100.00,NNW,328,0.0,3.0,97,0.00,,,0.00,0.000000,,2013-08-19 07:52:00,
2013-08-19 04:02:00,59.0,58.0,-100.00,NNW,328,0.0,3.0,97,0.00,,,0.00,0.000000,,2013-08-19 08:02:00,
2013-08-19 04:11:00,59.0,58.0,-100.00,NNW,328,0.0,3.0,97,0.00,,,0.00,0.000000,,2013-08-19 08:11:00,
2013-08-19 04:21:00,59.0,58.0,-100.00,NNW,328,0.0,3.0,97,0.00,,,0.00,0.000000,,2013-08-19 08:21:00,
2013-08-19 04:52:00,57.0,56.0,-100.00,ENE,78,0.0,2.0,98,0.00,,,0.00,0.000000,,2013-08-19 08:52:00,
2013-08-19 05:01:00,57.0,56.0,-100.00,ENE,78,0.0,2.0,98,0.00,,,0.00,0.000000,,2013-08-19 09:01:00,
2013-08-19 05:11:00,57.0,56.0,-100.00,ENE,78,0.0,2.0,98,0.00,,,0.00,0.000000,,2013-08-19 09:11:00,
2013-08-19 05:22:00,57.0,56.0,-100.00,ENE,78,0.0,2.0,98,0.00,,,0.00,0.000000,,2013-08-19 09:22:00,
2013-08-19 05:53:00,56.0,56.0,-100.00,SSE,163,0.0,3.0,99,0.00,,,0.00,0.000000,,2013-08-19 09:53:00,
2013-08-19 06:03:00,56.0,56.0,-100.00,SSE,163,0.0,3.0,99,0.00,,,0.00,0.000000,,2013-08-19 10:03:00,
2013-08-19 06:12:00,56.0,56.0,-100.00,SSE,163,0.0,3.0,99,0.00,,,0.00,0.000000,,2013-08-19 10:12:00,
2013-08-19 06:23:00,56.0,56.0,-100.00,SSE,163,0.0,3.0,99,0.00,,,0.00,0.000000,,2013-08-19 10:23:00,
2013-08-19 06:52:00,57.0,57.0,-100.00,South,180,1.0,3.0,99,0.00,,,0.00,0.000000,,2013-08-19 10:52:00,
2013-08-19 07:02:00,57.0,57.0,-100.00,South,180,1.0,3.0,99,0.00,,,0.00,0.000000,,2013-08-19 11:02:00,
2013-08-19 07:12:00,57.0,57.0,-100.00,South,180,1.0,3.0,99,0.00,,,0.00,0.000000,,2013-08-19 11:12:00,
2013-08-19 07:22:00,57.0,57.0,-100.00,South,180,1.0,3.0,99,0.00,,,0.00,0.000000,,2013-08-19 11:22:00,
2013-08-19 07:52:00,59.0,58.0,-100.00,South,180,2.0,5.0,98,0.00,,,0.00,22.000000,,2013-08-19 11:52:00,
2013-08-19 08:02:00,59.0,58.0,-100.00,South,180,2.0,5.0,98,0.00,,,0.00,22.000000,,2013-08-19 12:02:00,
2013-08-19 08:11:00,59.0,58.0,-100.00,South,180,2.0,5.0,98,0.00,,,0.00,22.000000,,2013-08-19 12:11:00,
2013-08-19 08:21:00,59.0,58.0,-100.00,South,180,2.0,5.0,98,0.00,,,0.00,22.000000,,2013-08-19 12:21:00,
2013-08-19 08:52:00,68.0,63.0,-100.00,SW,217,3.0,7.0,85,0.00,,,0.00,153.000000,,2013-08-19 12:52:00,
2013-08-19 09:03:00,68.0,63.0,-100.00,SW,217,3.0,7.0,85,0.00,,,0.00,153.000000,,2013-08-19 13:03:00,
2013-08-19 09:13:00,68.0,63.0,-100.00,SW,217,3.0,7.0,85,0.00,,,0.00,153.000000,,2013-08-19 13:13:00,
2013-08-19 09:22:00,68.0,63.0,-100.00,SW,217,3.0,7.0,85,0.00,,,0.00,153.000000,,2013-08-19 13:22:00,
2013-08-19 09:52:00,71.0,65.0,-100.00,SW,227,6.0,10.0,80,0.00,,,0.00,328.000000,,2013-08-19 13:52:00,
2013-08-19 10:02:00,71.0,65.0,-100.00,SW,227,6.0,10.0,80,0.00,,,0.00,328.000000,,2013-08-19 14:02:00,
2013-08-19 10:11:00,71.0,65.0,-100.00,SW,227,6.0,10.0,80,0.00,,,0.00,328.000000,,2013-08-19 14:11:00,
2013-08-19 10:22:00,71.0,65.0,-100.00,SW,227,6.0,10.0,80,0.00,,,0.00,328.000000,,2013-08-19 14:22:00,
2013-08-19 10:52:00,74.0,64.0,-100.00,SW,223,6.0,11.0,72,0.00,,,0.00,488.000000,,2013-08-19 14:52:00,
2013-08-19 11:01:00,74.0,64.0,-100.00,SW,223,6.0,11.0,72,0.00,,,0.00,488.000000,,2013-08-19 15:01:00,
2013-08-19 11:11:00,74.0,64.0,-100.00,SW,223,6.0,11.0,72,0.00,,,0.00,488.000000,,2013-08-19 15:11:00,
2013-08-19 11:22:00,74.0,64.0,-100.00,SW,223,6.0,11.0,72,0.00,,,0.00,488.000000,,2013-08-19 15:22:00,
2013-08-19 11:54:00,77.0,64.0,-100.00,WSW,248,6.0,11.0,64,0.00,,,0.00,614.000000,,2013-08-19 15:54:00,
2013-08-19 12:05:00,77.0,64.0,-100.00,WSW,248,6.0,11.0,64,0.00,,,0.00,614.000000,,2013-08-19 16:05:00,
2013-08-19 12:13:00,77.0,64.0,-100.00,WSW,248,6.0,11.0,64,0.00,,,0.00,614.000000,,2013-08-19 16:13:00,
2013-08-19 12:23:00,77.0,64.0,-100.00,WSW,248,6.0,11.0,64,0.00,,,0.00,614.000000,,2013-08-19 16:23:00,
2013-08-19 12:25:00,80.0,-99.9,-100.00,WNW,290,5.0,10.0,58,0.00,,,0.00,711.000000,,2013-08-19 16:25:00,
2013-08-19 13:04:00,80.0,64.0,-100.00,WNW,290,5.0,10.0,58,0.00,,,0.00,711.000000,,2013-08-19 17:04:00,
2013-08-19 13:13:00,80.0,64.0,-100.00,WNW,290,5.0,10.0,58,0.00,,,0.00,711.000000,,2013-08-19 17:13:00,
2013-08-19 13:25:00,79.0,59.0,-100.00,West,278,6.0,10.0,51,0.00,,,0.00,603.000000,,2013-08-19 17:25:00,
2013-08-19 13:57:00,79.0,59.0,-100.00,West,278,6.0,10.0,51,0.00,,,0.00,603.000000,,2013-08-19 17:57:00,
2013-08-19 14:05:00,79.0,59.0,-100.00,West,278,6.0,10.0,51,0.00,,,0.00,603.000000,,2013-08-19 18:05:00,
2013-08-19 14:19:00,79.0,59.0,-100.00,West,278,6.0,10.0,51,0.00,,,0.00,603.000000,,2013-08-19 18:19:00,
2013-08-19 14:25:00,-999.0,-99.9,-100.00,WNW,290,7.0,11.0,51,0.00,,,0.00,694.000000,,2013-08-19 18:25:00,
2013-08-19 14:50:00,-999.0,-99.9,-100.00,WNW,290,7.0,11.0,51,0.00,,,0.00,694.000000,,2013-08-19 18:50:00,
2013-08-19 15:00:00,-999.0,-99.9,-100.00,WNW,290,7.0,11.0,51,0.00,,,0.00,694.000000,,2013-08-19 19:00:00,
2013-08-19 15:07:00,80.0,60.0,-100.00,WNW,290,7.0,11.0,51,0.00,,,0.00,694.000000,,2013-08-19 19:07:00,
2013-08-19 15:16:00,80.0,60.0,-100.00,WNW,290,7.0,11.0,51,0.00,,,0.00,694.000000,,2013-08-19 19:16:00,
2013-08-19 15:25:00,81.0,-99.9,-100.00,WNW,303,5.0,11.0,48,0.00,,,0.00,531.000000,,2013-08-19 19:25:00,
2013-08-19 15:59:00,81.0,59.0,-100.00,WNW,303,5.0,11.0,48,0.00,,,0.00,531.000000,,2013-08-19 19:59:00,
2013-08-19 16:08:00,81.0,59.0,-100.00,WNW,303,5.0,11.0,48,0.00,,,0.00,531.000000,,2013-08-19 20:08:00,
2013-08-19 16:20:00,81.0,59.0,-100.00,WNW,303,5.0,11.0,48,0.00,,,0.00,531.000000,,2013-08-19 20:20:00,
2013-08-19 16:25:00,82.0,59.0,-100.00,NW,311,5.0,11.0,46,0.00,,,0.00,611.000000,,2013-08-19 20:25:00,
2013-08-19 17:00:00,-999.0,-99.9,-100.00,NW,311,5.0,11.0,-999,-99.99,,,-99.99,611.000000,,2013-08-19 21:00:00,
2013-08-19 17:08:00,82.0,59.0,-100.00,NW,311,5.0,11.0,46,0.00,,,0.00,611.000000,,2013-08-19 21:08:00,
2013-08-19 17:16:00,82.0,59.0,-100.00,NW,311,5.0,11.0,46,0.00,,,0.00,611.000000,,2013-08-19 21:16:00,
2013-08-19 17:25:00,80.0,59.0,-100.00,West,278,6.0,11.0,48,0.00,,,0.00,464.000000,,2013-08-19 21:25:00,
2013-08-19 17:55:00,80.0,59.0,-100.00,West,278,6.0,11.0,48,0.00,,,0.00,464.000000,,2013-08-19 21:55:00,
2013-08-19 18:06:00,80.0,59.0,-100.00,West,278,6.0,11.0,48,0.00,,,0.00,464.000000,,2013-08-19 22:06:00,
2013-08-19 18:25:00,79.0,60.0,-100.00,SW,233,5.0,10.0,53,0.00,,,0.00,319.000000,,2013-08-19 22:25:00,
2013-08-19 18:55:00,79.0,60.0,-100.00,SW,233,5.0,10.0,53,0.00,,,0.00,319.000000,,2013-08-19 22:55:00,
2013-08-19 19:05:00,79.0,60.0,-100.00,SW,233,5.0,10.0,53,0.00,,,0.00,319.000000,,2013-08-19 23:05:00,
2013-08-19 19:15:00,79.0,60.0,-100.00,SW,233,5.0,10.0,53,0.00,,,0.00,319.000000,,2013-08-19 23:15:00,
2013-08-19 19:55:00,75.0,60.0,-100.00,SW,231,4.0,8.0,60,0.00,,,0.00,139.000000,,2013-08-19 23:55:00,
2013-08-19 20:02:00,75.0,60.0,-100.00,SW,231,4.0,8.0,60,0.00,,,0.00,139.000000,,2013-08-20 00:02:00,
2013-08-19 20:11:00,75.0,60.0,-100.00,SW,231,4.0,8.0,60,0.00,,,0.00,139.000000,,2013-08-20 00:11:00,
2013-08-19 20:24:00,75.0,60.0,-100.00,SW,231,4.0,8.0,60,0.00,,,0.00,139.000000,,2013-08-20 00:24:00,
2013-08-19 20:53:00,71.0,60.0,-100.00,SW,219,4.0,8.0,68,0.00,,,0.00,21.000000,,2013-08-20 00:53:00,
2013-08-19 21:03:00,71.0,60.0,-100.00,SW,219,4.0,8.0,68,0.00,,,0.00,21.000000,,2013-08-20 01:03:00,
2013-08-19 21:11:00,71.0,60.0,-100.00,SW,219,4.0,8.0,68,0.00,,,0.00,21.000000,,2013-08-20 01:11:00,
2013-08-19 21:22:00,71.0,60.0,-100.00,SW,219,4.0,8.0,68,0.00,,,0.00,21.000000,,2013-08-20 01:22:00,
2013-08-19 21:52:00,68.0,61.0,-100.00,SSW,204,3.0,6.0,77,0.00,,,0.00,0.000000,,2013-08-20 01:52:00,
2013-08-19 22:02:00,68.0,61.0,-100.00,SSW,204,3.0,6.0,77,0.00,,,0.00,0.000000,,2013-08-20 02:02:00,
2013-08-19 22:11:00,68.0,61.0,-100.00,SSW,204,3.0,6.0,77,0.00,,,0.00,0.000000,,2013-08-20 02:11:00,
2013-08-19 22:21:00,68.0,61.0,-100.00,SSW,204,3.0,6.0,77,0.00,,,0.00,0.000000,,2013-08-20 02:21:00,
2013-08-19 22:52:00,66.0,62.0,-100.00,SW,219,3.0,7.0,88,0.00,,,0.00,0.000000,,2013-08-20 02:52:00,
2013-08-19 23:02:00,66.0,62.0,-100.00,SW,219,3.0,7.0,88,0.00,,,0.00,0.000000,,2013-08-20 03:02:00,
2013-08-19 23:11:00,66.0,62.0,-100.00,SW,219,3.0,7.0,88,0.00,,,0.00,0.000000,,2013-08-20 03:11:00,
2013-08-19 23:22:00,66.0,62.0,-100.00,SW,219,3.0,7.0,88,0.00,,,0.00,0.000000,,2013-08-20 03:22:00,
2013-08-19 23:54:00,65.0,63.0,-100.00,SSW,212,3.0,8.0,93,0.00,,,0.00,0.000000,,2013-08-20 03:54:00,